Location: Newark
(3.0500°N, 36.0167°E)
Time: 21:35:26
(UTC+00:00)

N. Korean satellite - Visible Passes

Search period start: 19 July 2019 00:00
Search period end: 29 July 2019 00:00
Orbit: 456 x 508 km, 97.2° (Epoch: 18 July)

Date Brightness Start Highest point End Pass type
(mag) Time Alt. Az. Time Alt. Az. Time Alt. Az.
20 Jul 7.2 03:08:13 10° NNE 03:11:54 64° ESE 03:15:34 10° S visible
21 Jul 9.1 02:43:48 10° NE 02:46:51 24° E 02:49:53 10° SSE visible
24 Jul 7.7 03:01:17 10° NNE 03:04:52 48° E 03:08:27 10° S visible
25 Jul 9.4 02:37:09 10° NE 02:39:49 19° E 02:42:29 10° SSE visible
28 Jul 8.3 02:54:24 10° NNE 02:57:50 36° E 03:01:14 10° SSE visible
